Tillbaka till svenska Fidonet
English   Information   Debug  
FILM   0/18
FNEWS_PUBLISH   4983
FN_SYSOP   42232
FN_SYSOP_OLD1   71952
FTP_FIDO   0/2
FTSC_PUBLIC   0/13976
FUNNY   0/4886
GENEALOGY.EUR   0/71
GET_INFO   105
GOLDED   0/408
HAM   744/16712
HOLYSMOKE   0/6791
HOT_SITES   0/1
HTMLEDIT   0/71
HUB203   466
HUB_100   264
HUB_400   39
HUMOR   0/29
IC   0/2851
INTERNET   0/424
INTERUSER   0/3
IP_CONNECT   719
JAMNNTPD   0/233
JAMTLAND   0/47
KATTY_KORNER   0/41
LAN   0/16
LINUX-USER   0/19
LINUXHELP   1057/1155
LINUX   0/22382
LINUX_BBS   0/957
mail   18.68
mail_fore_ok   249
MENSA   0/341
MODERATOR   0/102
MONTE   0/992
MOSCOW_OKLAHOMA   0/1245
MUFFIN   0/783
MUSIC   0/321
N203_STAT   938
N203_SYSCHAT   313
NET203   321
NET204   69
NET_DEV   0/10
NORD.ADMIN   0/101
NORD.CHAT   0/2572
NORD.FIDONET   189
NORD.HARDWARE   0/28
NORD.KULTUR   0/114
NORD.PROG   0/32
NORD.SOFTWARE   0/88
NORD.TEKNIK   0/58
NORD   0/453
OCCULT_CHAT   0/93
OS2BBS   0/787
OS2DOSBBS   0/580
OS2HW   0/42
OS2INET   0/37
OS2LAN   0/134
OS2PROG   0/36
OS2REXX   0/113
OS2USER-L   207
OS2   0/4831
OSDEBATE   0/18996
PASCAL   0/490
PERL   0/457
PHP   0/45
POINTS   0/405
POLITICS   0/29554
POL_INC   0/14731
PSION   103
R20_ADMIN   1133
R20_AMATORRADIO   0/2
R20_BEST_OF_FIDONET   16
R20_CHAT   0/897
R20_DEPP   0/3
R20_DEV   400
R20_ECHO2   1888
R20_ECHOPRES   0/35
R20_ESTAT   0/719
R20_FIDONETPROG...
...RAM.MYPOINT
  0/2
R20_FIDONETPROGRAM   0/22
R20_FIDONET   0/248
R20_FILEFIND   0/24
R20_FILEFOUND   0/22
R20_HIFI   0/3
R20_INFO2   3781
R20_INTERNET   0/12940
R20_INTRESSE   0/60
R20_INTR_KOM   0/99
R20_KANDIDAT.CHAT   42
R20_KANDIDAT   28
R20_KOM_DEV   112
R20_KONTROLL   0/13360
R20_KORSET   0/18
R20_LOKALTRAFIK   0/24
R20_MODERATOR   0/1852
R20_NC   76
R20_NET200   245
R20_NETWORK.OTH...
...ERNETS
  0/13
R20_OPERATIVSYS...
...TEM.LINUX
  0/44
R20_PROGRAMVAROR   0/1
R20_REC2NEC   534
R20_SFOSM   0/341
R20_SF   0/108
R20_SPRAK.ENGLISH   0/1
R20_SQUISH   107
R20_TEST   2
R20_WORST_OF_FIDONET   20
RAR   0/9
RA_MULTI   106
RA_UTIL   0/162
REGCON.EUR   0/2069
REGCON   0/13
SCIENCE   0/1206
SF   0/239
SHAREWARE_SUPPORT   0/5146
SHAREWRE   0/14
SIMPSONS   0/169
STATS_OLD1   0/2539.065
STATS_OLD2   0/2530
STATS_OLD3   0/2395.095
STATS_OLD4   0/1692.25
SURVIVOR   0/495
SYSOPS_CORNER   0/3
SYSOP   0/84
TAGLINES   0/112
TEAMOS2   0/4530
TECH   0/2617
TEST.444   0/105
TRAPDOOR   0/19
TREK   0/755
TUB   0/290
UFO   0/40
UNIX   0/1316
USA_EURLINK   0/102
USR_MODEMS   0/1
VATICAN   0/2740
VIETNAM_VETS   0/14
VIRUS   0/378
VIRUS_INFO   0/201
VISUAL_BASIC   0/473
WHITEHOUSE   0/5187
WIN2000   0/101
WIN32   0/30
WIN95   0/4291
WIN95_OLD1   0/70272
WINDOWS   0/1517
WWB_SYSOP   0/419
WWB_TECH   0/810
ZCC-PUBLIC   0/1
ZEC   4

 
4DOS   0/134
ABORTION   0/7
ALASKA_CHAT   0/506
ALLFIX_FILE   0/1313
ALLFIX_FILE_OLD1   0/7997
ALT_DOS   0/152
AMATEUR_RADIO   0/1039
AMIGASALE   0/14
AMIGA   0/331
AMIGA_INT   0/1
AMIGA_PROG   0/20
AMIGA_SYSOP   0/26
ANIME   0/15
ARGUS   0/924
ASCII_ART   0/340
ASIAN_LINK   0/651
ASTRONOMY   0/417
AUDIO   0/92
AUTOMOBILE_RACING   0/105
BABYLON5   0/17862
BAG   135
BATPOWER   255/361
BBBS.ENGLISH   0/382
BBSLAW   0/109
BBS_ADS   0/5290
BBS_INTERNET   0/507
BIBLE   0/3563
BINKD   0/1119
BINKLEY   0/215
BLUEWAVE   0/2173
CABLE_MODEMS   0/25
CBM   0/46
CDRECORD   0/66
CDROM   0/20
CLASSIC_COMPUTER   0/378
COMICS   0/15
CONSPRCY   0/899
COOKING   42003
COOKING_OLD1   0/24719
COOKING_OLD2   14379/40862
COOKING_OLD3   0/37489
COOKING_OLD4   15183/35496
COOKING_OLD5   9370
C_ECHO   0/189
C_PLUSPLUS   0/31
DIRTY_DOZEN   0/201
DOORGAMES   0/2333
DOS_INTERNET   0/196
duplikat   6102
ECHOLIST   16020/18295
EC_SUPPORT   9/318
ELECTRONICS   0/359
ELEKTRONIK.GER   1534
ENET.LINGUISTIC   0/13
ENET.POLITICS   0/4
ENET.SOFT   0/11701
ENET.SYSOP   34332
ENET.TALKS   0/32
ENGLISH_TUTOR   0/2000
EVOLUTION   0/1335
FDECHO   0/217
FDN_ANNOUNCE   5018/7068
FIDONEWS   25122
FIDONEWS_OLD1   0/49742
FIDONEWS_OLD2   0/35949
FIDONEWS_OLD3   0/30874
FIDONEWS_OLD4   0/37224
FIDO_SYSOP   12973
FIDO_UTIL   0/180
FILEFIND   0/209
FILEGATE   0/212
Möte HAM, 16712 texter
 lista första sista föregående nästa
Text 154, 735 rader
Skriven 2004-12-24 02:13:49 av Amsat List (1:323/120.0)
Ärende: 
========
SB KEPS @ AMSAT  $ORB04358.O
Orbital Elements  04358.OSCAR

HR AMSAT ORBITAL ELEMENTS FOR OSCAR SATELLITES
FROM WA5QGD FORT WORTH,TX December 23, 2004
SEND SUBSCRIBE/UNSUBSCRIBE TO majordomo@amsat.org ONLY
BID: ORB04358.O
TO ALL RADIO AMATEURS BT

Satellite: AO-07
Catalog number: 07530
Epoch time:      04357.69996212
Element set:     363
Inclination:      101.6541 deg
RA of node:        41.2926 deg
Eccentricity:    0.0012194
Arg of perigee:   215.7506 deg
Mean anomaly:     144.2750 deg
Mean motion:   12.53570019 rev/day
Decay rate:       -2.8e-07 rev/day^2
Epoch rev:           37753
Checksum:              285

Satellite: AO-10
Catalog number: 14129
Epoch time:      04357.52009690
Element set:    0133
Inclination:      026.9049 deg
RA of node:       055.4239 deg
Eccentricity:    0.6032910
Arg of perigee:   150.8982 deg
Mean anomaly:     263.3325 deg
Mean motion:   02.05868630 rev/day
Decay rate:       -3.2e-07 rev/day^2
Epoch rev:           16189
Checksum:              291

Satellite: UO-11
Catalog number: 14781
Epoch time:      04357.85713526
Element set:     667
Inclination:       98.1913 deg
RA of node:       345.9904 deg
Eccentricity:    0.0008842
Arg of perigee:   199.4847 deg
Mean anomaly:     160.6004 deg
Mean motion:   14.79108503 rev/day
Decay rate:        2.1e-07 rev/day^2
Epoch rev:           11573
Checksum:              313

Satellite: RS-10/11
Catalog number: 18129
Epoch time:      04358.07412683
Element set:     570
Inclination:       82.9249 deg
RA of node:         8.4064 deg
Eccentricity:    0.0012436
Arg of perigee:   148.8859 deg
Mean anomaly:     211.3042 deg
Mean motion:   13.72750579 rev/day
Decay rate:        1.4e-07 rev/day^2
Epoch rev:           87691
Checksum:              308

Satellite: FO-20
Catalog number: 20480
Epoch time:      04357.65115097
Element set:     775
Inclination:       99.0167 deg
RA of node:       199.4379 deg
Eccentricity:    0.0539813
Arg of perigee:   279.8584 deg
Mean anomaly:      74.2015 deg
Mean motion:   12.83343658 rev/day
Decay rate:       -5.8e-07 rev/day^2
Epoch rev:           69685
Checksum:              355

Satellite: RS-12/13
Catalog number: 21089
Epoch time:      04358.21788559
Element set:     794
Inclination:       82.9242 deg
RA of node:        41.4857 deg
Eccentricity:    0.0028615
Arg of perigee:   206.4760 deg
Mean anomaly:     153.4918 deg
Mean motion:   13.74445132 rev/day
Decay rate:        1.9e-07 rev/day^2
Epoch rev:           69632
Checksum:              327

Satellite: RS-15
Catalog number: 23439
Epoch time:      04357.55331060
Element set:    0840
Inclination:      064.8212 deg
RA of node:       033.2125 deg
Eccentricity:    0.0158794
Arg of perigee:   347.4080 deg
Mean anomaly:     012.2899 deg
Mean motion:   11.27550506 rev/day
Decay rate:       -3.9e-07 rev/day^2
Epoch rev:           41147
Checksum:              284

Satellite: FO-29
Catalog number: 24278
Epoch time:      04358.27138909
Element set:     854
Inclination:       98.5735 deg
RA of node:        65.3810 deg
Eccentricity:    0.0349674
Arg of perigee:   272.0310 deg
Mean anomaly:      84.0818 deg
Mean motion:   13.52906143 rev/day
Decay rate:       -6.1e-07 rev/day^2
Epoch rev:           41240
Checksum:              311

Satellite: SO-33
Catalog number: 25509
Epoch time:      04357.31255886
Element set:    0263
Inclination:      031.4301 deg
RA of node:       312.3081 deg
Eccentricity:    0.0355193
Arg of perigee:   060.1479 deg
Mean anomaly:     303.3958 deg
Mean motion:   14.27945255 rev/day
Decay rate:       3.67e-06 rev/day^2
Epoch rev:           32152
Checksum:              292

Satellite: AO-40
Catalog number: 26609
Epoch time:      04358.15860515
Element set:     474
Inclination:        9.0368 deg
RA of node:       328.9528 deg
Eccentricity:    0.7959080
Arg of perigee:   350.4630 deg
Mean anomaly:       0.3286 deg
Mean motion:    1.25585970 rev/day
Decay rate:      -1.91e-06 rev/day^2
Epoch rev:            1904
Checksum:              312

/EX
SB KEPS @ AMSAT  $ORB04358.D
Orbital Elements  04358.MICROS

HR AMSAT ORBITAL ELEMENTS FOR THE MICROSATS
FROM WA5QGD FORT WORTH,TX December 23, 2004
SEND SUBSCRIBE/UNSUBSCRIBE TO majordomo@amsat.org ONLY
BID: ORB04358.D
TO ALL RADIO AMATEURS BT

Satellite: UO-14
Catalog number: 20437
Epoch time:      04358.04060916
Element set:     669
Inclination:       98.1995 deg
RA of node:        11.5756 deg
Eccentricity:    0.0011053
Arg of perigee:     4.1172 deg
Mean anomaly:     356.0094 deg
Mean motion:   14.31389354 rev/day
Decay rate:        3.5e-07 rev/day^2
Epoch rev:           77883
Checksum:              299

Satellite: AO-16
Catalog number: 20439
Epoch time:      04357.65809890
Element set:     356
Inclination:       98.2257 deg
RA of node:        26.1914 deg
Eccentricity:    0.0011464
Arg of perigee:    12.0407 deg
Mean anomaly:     348.1048 deg
Mean motion:   14.31649113 rev/day
Decay rate:       -8.0e-08 rev/day^2
Epoch rev:           77883
Checksum:              304

Satellite: WO-18
Catalog number: 20441
Epoch time:      04357.67192611
Element set:     547
Inclination:       98.2393 deg
RA of node:        30.3908 deg
Eccentricity:    0.0012118
Arg of perigee:    13.0027 deg
Mean anomaly:     347.1465 deg
Mean motion:   14.31724396 rev/day
Decay rate:        4.5e-07 rev/day^2
Epoch rev:           77889
Checksum:              300

Satellite: LO-19
Catalog number: 20442
Epoch time:      04357.71111391
Element set:     283
Inclination:       98.2477 deg
RA of node:        34.6566 deg
Eccentricity:    0.0012279
Arg of perigee:    11.4657 deg
Mean anomaly:     348.6798 deg
Mean motion:   14.31896425 rev/day
Decay rate:        4.0e-07 rev/day^2
Epoch rev:           77896
Checksum:              330

